Regional Weather Roundup
Issued by NWS

Home | Current Version | Previous Version | Text Only | Print | Product List | Glossary On
Versions: 1 2 3 4 5 6 7 8 9 10 11 12 13 14 15 16 17 18 19 20 21 22 23 24 25 26 27 28 29 30 31 32 33 34 35 36 37 38 39 40 41 42 43 44 45 46 47 48 49 50
000
ASUS44 KLUB 021910
RWRTX
WEST TEXAS WEATHER ROUNDUP
NATIONAL WEATHER SERVICE LUBBOCK TX
200 PM CDT WED SEP 02 2015

NOTE: "FAIR" INDICATES FEW OR NO CLOUDS BELOW 12,000 FEET WITH NO
SIGNIFICANT WEATHER AND/OR OBSTRUCTIONS TO VISIBILITY.

TXZ004-006>008-010-012-014-016-OKZ002-022000-
TEXAS PANHANDLE/OKLAHOMA PANHANDLE

CITY           SKY/WX    TMP DP  RH WIND       PRES   REMARKS
AMARILLO       MOSUNNY   90  56  31 S20G26    30.07F
BORGER         MOSUNNY   92  57  30 S16G25    30.02F
CANADIAN       SUNNY     93  59  31 S17       29.98F
DALHART        MOSUNNY   91  54  28 S15       30.05F
DUMAS          MOSUNNY   92  52  25 S16G22    30.04F
GUYMON         SUNNY     94  55  26 S21       29.96F
HEREFORD       MOSUNNY   91  55  29 S16G23    30.08F
PAMPA          MOSUNNY   92  56  28 S17G24    30.05F
PERRYTON       SUNNY     95  54  24 S21       29.99F
$$

TXZ026-029-035-045-048-022000-
SOUTHERN PANHANDLE/SOUTH PLAINS/ROLLING PLAINS

CITY           SKY/WX    TMP DP  RH WIND       PRES   REMARKS
CHILDRESS      MOSUNNY   94  57  28 S9        30.00F
SEMINOLE       SUNNY     91  51  25 S14G22    30.09F
LUBBOCK        PTSUNNY   90  55  30 S16       30.08F
PLAINVIEW      MOSUNNY   90  56  31 S13G20    30.07F
SNYDER         SUNNY     90  59  34 SE9G16    30.06F
$$

TXZ052-054-060>062-072-078-127-140-154-169-022000-
PERMIAN BASIN/CONCHO VALLEY/BIG COUNTRY/EDWARDS PLATEAU

CITY           SKY/WX    TMP DP  RH WIND       PRES   REMARKS
ABILENE        MOSUNNY   91  61  36 MISG      30.03F
BIG SPRING     SUNNY     90  56  31 S10G18    30.08F
BRADY          MOSUNNY   93  61  33 E6        30.04F
JUNCTION       SUNNY     89  62  40 VRB6      30.03F
MIDLAND        SUNNY     91  56  30 SE17G26   30.06F
ODESSA         SUNNY     91  53  27 S15       30.08F
SAN ANGELO     SUNNY     92  61  35 SE12G18   30.02F
SONORA         MOSUNNY   88  63  42 S7        30.09F
SWEETWATER     SUNNY     91  53  27 SE7       30.08F
WINK           SUNNY     92  54  27 SE12G23   30.04F
$$

TXZ055-058-074-075-080-082-022000-
FAR WEST/SOUTHWEST MOUNTAINS/TRANS PECOS

CITY           SKY/WX    TMP DP  RH WIND       PRES   REMARKS
ALPINE         MOSUNNY   89  43  20 NE5       30.19F
DRYDEN           N/A     92  63  38 SE9G18    30.02F
EL PASO        MOSUNNY   94  47  20 VRB5      30.07F
FORT STOCKTON  SUNNY     90  56  31 S10       30.06F
GUADALUPE PASS MOSUNNY   86  50  28 E9G22     30.22F
MARFA          MOSUNNY   88  52  29 S9        30.17F
PECOS          SUNNY     93  55  28 E8G18     30.02F
$$

TXZ014-016-019-021>030-083-022000
TEXAS TECH WEST TEXAS MESONET/TEXAS PANHANDLE/NORTHERN SOUTH PLAINS

CITY           SKY/WX    TMP DP  RH WIND       PRES   REMARKS
ABERNATHY 5ENE   N/A     90  54  29 S14       30.10S
AMARILLO 9NNE    N/A     93  56  29 S14       30.03F
AMARILLO 7SSE    N/A     90  57  32 S17       30.08F
AMHERST 1NE      N/A     88  52  28 S15       30.09F
BOOTLEG 11WNW    N/A     88  52  28 S10       30.12F
CANADIAN 6E      N/A     93  60  32 S13       29.98F
CAPROCK CYN SP   N/A     91  55  29 S13       30.04F
CHILDRESS 2NNE   N/A     95  55  26 S12       30.00F
CLARENDON 2WSW   N/A     91  54  28 S16       30.04F
CLAUDE 12SW      N/A     90  57  33 S13       30.07F
DIMMITT 2NE      N/A     89  53  29 S17       30.10F
FLOYDADA 2NNE    N/A     89  53  28 S10       30.08F
FRIONA 2NE       N/A     92  50  24 S20       30.09F
GOODLETT 3W      N/A     96  55  24 SE10      29.98F
HART 3N          N/A     86  55  34 S14       30.10F
HEREFORD 2NW     N/A     90  49  24 S16       30.08F
MCLEAN 1E        N/A     89  56  31 S15       30.03F
MEMPHIS 1NE      N/A     94  55  27 S9        30.00F
MULESHOE 2SSW    N/A     90  51  25 S15       30.09F
OLTON 6S         N/A     88  52  29 S17       30.09F
PALO DURO SP     N/A     90  57  32 S16       30.08F
PAMPA 2E         N/A     89  55  31 S16       30.05F
PLAINVIEW 1S     N/A     90  55  29 S10       30.08F
SILVERTON 7ESE   N/A     90  56  32 S13       30.07F
TULIA 2ENE       N/A     89  56  33 S16       30.09F
TURKEY 2WSW      N/A     92  56  29 S14       30.03F
UMBARGER 3NNE    N/A     90  56  32 S16       30.09S
$$

TXZ033>036-039>041-045>048-022000
TEXAS TECH WEST TEXAS MESONET/SOUTH PLAINS

CITY           SKY/WX    TMP DP  RH WIND       PRES   REMARKS
AIKEN 3WSW       N/A     91  57  32 S13       30.09F
ANDREWS 2NE      N/A     89  51  26 SE13      30.08F
ANTON 6SSW       N/A     88  56  34 S15G24    30.09F
BROWNFIELD 2S    N/A     89  53  28 SE12      30.09F
DENVR CTY 7WNW   N/A     89  48  23 S14G24    30.10F
GAIL 2ESE        N/A     92  54  27 SE8       30.04F
LAMESA 2SE       N/A     92  55  28 S12       30.08F
LEVELLAND 4S     N/A     89  52  28 S12       30.10F
LUBBOCK 3WNW     N/A     91  54  28 S12       30.08F
MORTON 1ENE      N/A     87  53  30 S15       30.10F
ODONNELL 1N      N/A     91  51  25 SE12      30.08F
PLAINS 3N        N/A     90  50  25 S16       30.10F
RALLS 1SE        N/A     90  56  31 S9        30.09F
REESE CENTER     N/A     88  51  28 S15       30.09F
SEAGRAVES 1SW    N/A     89  53  28 SE10      30.09F
SEMINOLE 2NNE    N/A     91  51  25 SE13      30.08F
SLATON 2NE       N/A     89  54  30 S13       30.08F
SNYDER 3E        N/A     93  55  27 SE12      30.05F
SUNDOWN 8SW      N/A     90  52  27 S14       30.10F
TAHOKA 3NNE      N/A     91  55  29 S8        30.08F
WOLFFORTH 6SSW   N/A     89  56  32 S13       30.09F
$$

TXZ031-032-036>038-042>044-022000-
TEXAS TECH WEST TEXAS MESONET/ROLLING PLAINS

CITY           SKY/WX    TMP DP  RH WIND       PRES   REMARKS
ASPERMONT 3NE    N/A     95  57  28 SE9       30.01F
FLUVANNA 3WNW    N/A     91  53  27 SE12      30.06F
GUTHRIE 10WSW    N/A     96  55  25 S8        30.01F
HASKELL 1NW      N/A     92  55  28 SE8       30.00F
JAYTON 1SSE      N/A     94  53  25 SE13      30.02F
KNOX CITY 3NW    N/A     95  56  26 S8        30.00F
LK A HENRY 1NW   N/A     92  55  27 SE8       30.03F
NORTHFIELD 1S    N/A     94  56  27 S12       30.00F
ODELL 4ENE       N/A     96  59  29 S10       29.99F HX  95
PADUCAH 10SW     N/A     95  56  26 S6        30.01F
POST 1NE         N/A     91  55  29 SE8       30.05F
RRING SPRGS 3N   N/A     92  57  30 SE12      30.05S
SEYMOUR 3NW      N/A     94  58  30 S8        29.98F
SPUR 1W          N/A     92  53  26 SW3       30.02F
WEINERT 2NNE     N/A     95  61  32 S12       30.00F HX  95
WHITE RVR 6NE    N/A     91  55  28 S8        30.05F
$$

TXZ052-054-060>062-072-078-127-140-154-169-022000-
TEXAS TECH WEST TEXAS MESONET/PERMIAN BASIN/
CONCHO VALLEY/BIG COUNTRY/EDWARDS PLATEAU

CITY           SKY/WX    TMP DP  RH WIND       PRES   REMARKS
JUNCTION 1SSW    N/A     90  63  40 SE5       30.04F
MERTZON 3NNE     N/A     93  62  35 SE10      30.05F
SAN ANGELO 7NW   N/A     92  58  31 SE9       30.04F
STRLNG CT 4WSW   N/A     94  57  29 SE9       30.06F
ST LAWRNCE 5SW   N/A     89  58  35 SE7       30.07F
SWEETWATR 11SW   N/A     91  59  33 SE9       30.07F
WALL 1E          N/A     91  60  35 E5        30.04F
$$

TXZ055-058-074-075-080-082-022000-
TEXAS TECH WEST TEXAS MESONET/FAR WEST/SOUTHWEST MOUNTAINS/TRANS PECOS

CITY           SKY/WX    TMP DP  RH WIND       PRES   REMARKS
PRSMN GAP BBNP   N/A     90  60  35 E6        30.04F
$$



USA.gov is the U.S. government's official web portal to all federal, state and local government web resources and services.